#timestamp,LO_Frequency,Hit,StdDev 
1593536415.8,286046999.8,N
1593536435.6,286046999.8,N
1593536455.5,286047003.9,N
1593536475.3,286047003.9,N
1593536495.1,286046998.3,N
1593536515.9,286047000.9,N
1593536535.7,286046998.5,N
1593536555.6,286046997.3,N
1593536575.4,286046999.1,N
1593536595.2,286046999.6,N
1593536615.1,286047000.9,N
1593536616.0,286047000.9,N
1593536635.8,286047000.7,N
1593536655.6,286046996.7,N
1593536675.5,286046996.5,N
1593536695.3,286047000.7,N
1593536715.1,286047002.7,N
1593536735.9,286047004.3,N
1593536755.7,286047004.5,N
1593536775.6,286047005.8,N
1593536795.4,286047002.3,N
1593536815.2,286047002.8,N
1593536835.1,286047001.9,N
1593536836.0,286047001.9,N
1593536855.8,286047003.4,N
1593536875.7,286047005.5,N
1593536895.5,286047008.9,Y
1593536915.3,286047012.3,P
1593536935.2,286047008.7,N
1593536955.9,286047011.8,N
1593536975.7,286047012.2,N
1593536995.6,286047011.9,N
1593537015.4,286047010.9,N
1593537035.3,286047017.1,Y
1593537055.1,286047005.7,P
1593537056.0,286047005.7,N
1593537075.8,286047002.9,N
1593537095.7,286047005.6,N
1593537115.5,286047007.3,Y
1593537135.3,286046996.5,P
1593537155.2,286047000.4,N
1593537175.0,286046999.8,N
1593537175.9,286046999.8,N
1593537195.8,286047002.6,N
1593537215.6,286047000.2,N
1593537235.4,286046998.5,N
1593537255.3,286046994.4,N
1593537275.1,286046994.1,N
1593537295.8,286046996.4,N
1593537315.7,286046996.2,N
1593537335.5,286046997.6,N
1593537355.4,286046996.9,N
1593537375.2,286046999.3,N
1593537395.0,286046999.2,N
1593537395.9,286046999.2,N
1593537415.8,286046997.1,N
1593537435.6,286046996.2,N
1593537455.4,286046997.1,N
1593537475.3,286046999.8,N
1593537495.1,286047003.6,N
1593537515.8,286047004.5,N
1593537535.7,286047008.6,N
1593537555.5,286047008.6,N
1593537575.4,286047010.1,N
1593537595.2,286047012.0,N
1593537615.0,286047011.4,N
1593537615.9,286047011.4,N
1593537635.8,286047013.6,N
1593537655.6,286047011.2,N
1593537675.4,286047010.8,N
1593537695.3,286047011.9,N
1593537715.1,286047013.8,N
1593537735.9,286047007.8,N
1593537755.7,286047011.0,N
1593537775.5,286047009.3,N
1593537795.4,286047011.5,N
1593537815.2,286047013.8,N
1593537835.0,286047014.1,N
1593537866.0,286047015.8,E
1593537875.9,286047011.1,N
1593537895.7,286047003.2,P
1593537915.6,286047007.2,N
1593537935.4,286047006.1,N
1593537955.2,286047007.6,N
1593537975.1,286047004.7,N
1593538006.0,286047006.3,E
1593538015.0,286047005.5,N
1593538015.9,286047005.5,P
1593538035.8,286047002.6,P
1593538055.6,286047003.2,N
1593538075.4,286047001.7,N
1593538095.3,286047002.4,N
1593538115.1,286047001.9,N
1593538135.8,286046999.0,N
1593538155.7,286046996.2,N
1593538175.5,286046997.4,N
1593538195.4,286046996.8,N
1593538215.2,286047000.6,N
1593538235.0,286046999.4,N
1593538235.9,286046999.4,N
1593538255.8,286046996.8,N
1593538275.6,286046997.8,N
1593538295.4,286047000.5,N
1593538315.3,286046999.7,N
1593538335.1,286047004.2,N
1593538355.9,286047001.3,N
1593538375.7,286047001.7,N
1593538395.5,286047004.9,N
1593538415.4,286047003.0,N
1593538435.2,286047005.7,N
1593538455.0,286047005.8,N
1593538455.9,286047005.8,N
1593538475.8,286047005.6,N
1593538495.6,286047001.3,N
1593538515.5,286047002.2,N
1593538535.3,286047002.0,N
1593538555.1,286047002.2,N
1593538575.9,286047002.4,N
1593538595.7,286047002.8,N
1593538615.5,286047002.5,N
1593538635.4,286046999.7,N
1593538655.2,286046999.3,N
1593538675.1,286047002.1,N
1593538676.0,286047002.1,N
1593538695.8,286047002.8,N
1593538715.6,286047000.9,N
1593538735.5,286046998.3,N
1593538755.3,286046999.4,N
1593538775.1,286046998.2,N
1593538795.9,286046996.5,N
1593538815.7,286046999.6,N
1593538835.6,286046996.6,N
1593538855.4,286047001.2,N
1593538875.2,286047000.6,N
1593538895.1,286046999.1,N
1593538896.0,286046999.1,N
1593538915.8,286046997.3,N
1593538935.7,286046994.5,N
1593538955.5,286046997.6,N
1593538975.3,286046997.3,N
1593538995.2,286046997.1,N
1593539015.9,286046997.8,N
1593539035.7,286046995.4,N
1593539055.6,286047001.2,N
1593539075.4,286047000.1,N
1593539095.2,286047000.9,N
1593539115.1,286047002.8,N
1593539116.0,286047002.8,N
1593539135.8,286047001.1,N
1593539155.7,286046998.1,N
1593539175.5,286046998.8,N
1593539195.3,286047000.1,N
1593539215.2,286047001.2,N
1593539235.0,286046998.8,N
1593539235.9,286046998.8,N
1593539255.8,286046999.9,N
1593539275.6,286047000.9,N
1593539295.4,286047002.4,N
1593539315.3,286047002.4,N
1593539335.1,286047002.6,N
1593539355.8,286047001.4,N
1593539375.7,286047003.5,N
1593539395.5,286047005.4,N
1593539415.3,286047004.1,N
1593539435.2,286047001.4,N
1593539455.0,286047005.1,N
1593539455.9,286047005.1,N
1593539475.8,286047005.6,N
1593539495.6,286047006.0,N
1593539515.4,286047004.5,N
1593539535.3,286047005.6,N
1593539555.1,286047003.5,N
1593539575.9,286047006.9,N
1593539595.7,286047009.0,Y
1593539615.5,286047008.9,P
1593539635.4,286047007.1,N
1593539685.2,286047007.8,E
1593539695.2,286047005.1,N
1593539715.9,286047002.7,P
1593539735.7,286046999.7,N
1593539755.6,286047001.4,N
1593539775.4,286047006.0,Y
1593539795.3,286047002.0,P
1593539815.1,286046999.8,N
1593539816.0,286046999.8,N
1593539835.8,286047003.3,N
1593539855.7,286047005.5,Y
1593539875.5,286047007.6,P
1593539895.4,286047003.3,N
1593539915.2,286047005.3,N
1593539935.0,286047005.8,N
1593539935.9,286047005.8,N
1593539955.8,286047005.1,N
1593539975.6,286047002.0,N
1593539995.4,286047000.7,N
